ICN7241 CYQB-CYUL

Flight info

Callsign ICN7241
Flight time 0h 41m
Altitude 20000
Route TIBOS ROCKT3
Aircraft AT76/M-SDFGIRY/S

Departure

Time 2026-05-09 11:44
Airport Quebec Jean Lesage International Airport (CYQB)

Arrival

Time 2026-05-09 12:25
Airport Montreal / Pierre Elliott Trudeau International Airport (CYUL)
Time Latitude Longitude Altitude Speed Heading
2026-05-09 11:27 46.79014 -71.38456 240 ft 0 kts 21°
2026-05-09 11:35 46.79011 -71.38458 240 ft 3 kts 21°
2026-05-09 11:35 46.78993 -71.38468 239 ft 3 kts 21°
2026-05-09 11:35 46.78976 -71.38478 239 ft 3 kts 21°
2026-05-09 11:35 46.78958 -71.38488 239 ft 3 kts 21°
2026-05-09 11:36 46.78950 -71.38492 239 ft 0 kts 21°
2026-05-09 11:38 46.78956 -71.38528 239 ft 12 kts 262°
2026-05-09 11:39 46.78896 -71.38568 239 ft 11 kts 182°
2026-05-09 11:39 46.78799 -71.38569 238 ft 16 kts 181°
2026-05-09 11:39 46.78756 -71.38678 238 ft 15 kts 277°
2026-05-09 11:40 46.78786 -71.38992 239 ft 22 kts 277°
2026-05-09 11:40 46.78791 -71.39037 240 ft 0 kts 278°
2026-05-09 11:41 46.78791 -71.39040 240 ft 0 kts 278°
2026-05-09 11:41 46.78794 -71.39068 240 ft 9 kts 278°
2026-05-09 11:41 46.78814 -71.39268 243 ft 30 kts 278°
2026-05-09 11:41 46.78838 -71.39522 245 ft 22 kts 277°
2026-05-09 11:42 46.78856 -71.39721 248 ft 22 kts 276°
2026-05-09 11:42 46.78875 -71.39946 245 ft 21 kts 278°
2026-05-09 11:42 46.78890 -71.40136 245 ft 18 kts 275°
2026-05-09 11:42 46.78891 -71.40246 244 ft 1 kts 316°
2026-05-09 11:43 46.78897 -71.40153 245 ft 27 kts 97°
2026-05-09 11:43 46.78841 -71.39561 246 ft 90 kts 98°
2026-05-09 11:43 46.78742 -71.38408 304 ft 131 kts 97°
2026-05-09 11:43 46.78620 -71.37045 669 ft 142 kts 97°
2026-05-09 11:44 46.78488 -71.35589 1196 ft 146 kts 99°
2026-05-09 11:44 46.78359 -71.34092 1831 ft 152 kts 99°
2026-05-09 11:44 46.78243 -71.32415 2115 ft 179 kts 98°
2026-05-09 11:44 46.78124 -71.30556 2579 ft 183 kts 98°
2026-05-09 11:45 46.77994 -71.28699 2977 ft 184 kts 98°
2026-05-09 11:45 46.77832 -71.26845 3357 ft 183 kts 108°
2026-05-09 11:45 46.77094 -71.25434 3651 ft 176 kts 158°
2026-05-09 11:45 46.75948 -71.25327 3989 ft 166 kts 206°
2026-05-09 11:46 46.75104 -71.26417 4322 ft 163 kts 230°
2026-05-09 11:46 46.74372 -71.27686 4688 ft 163 kts 231°
2026-05-09 11:46 46.73644 -71.28956 5042 ft 164 kts 231°
2026-05-09 11:46 46.72901 -71.30227 5403 ft 165 kts 231°
2026-05-09 11:47 46.72153 -71.31502 5765 ft 166 kts 230°
2026-05-09 11:47 46.71382 -71.32758 6086 ft 167 kts 229°
2026-05-09 11:47 46.70594 -71.34009 6407 ft 168 kts 229°
2026-05-09 11:47 46.69799 -71.35260 6720 ft 169 kts 229°
2026-05-09 11:48 46.68999 -71.36516 7040 ft 169 kts 229°
2026-05-09 11:48 46.68189 -71.37762 7366 ft 170 kts 229°
2026-05-09 11:48 46.67370 -71.39008 7674 ft 171 kts 229°
2026-05-09 11:48 46.66543 -71.40254 7972 ft 171 kts 229°
2026-05-09 11:49 46.65718 -71.41512 8282 ft 172 kts 229°
2026-05-09 11:49 46.64895 -71.42777 8597 ft 173 kts 229°
2026-05-09 11:49 46.64059 -71.44039 8910 ft 174 kts 229°
2026-05-09 11:49 46.63595 -71.44729 9073 ft 174 kts 228°
2026-05-09 11:51 46.62763 -71.45954 9390 ft 175 kts 228°
2026-05-09 11:51 46.61926 -71.47181 9484 ft 173 kts 228°
2026-05-09 11:51 46.61059 -71.48425 9820 ft 176 kts 227°
2026-05-09 11:51 46.60181 -71.49670 10192 ft 177 kts 228°
2026-05-09 11:52 46.59304 -71.50927 10547 ft 177 kts 229°
2026-05-09 11:52 46.58426 -71.52193 10889 ft 178 kts 229°
2026-05-09 11:52 46.57546 -71.53467 11224 ft 178 kts 229°
2026-05-09 11:52 46.56666 -71.54739 11543 ft 179 kts 230°
2026-05-09 11:53 46.55777 -71.56028 11826 ft 181 kts 230°
2026-05-09 11:53 46.54880 -71.57327 12162 ft 182 kts 230°
2026-05-09 11:53 46.53981 -71.58624 12486 ft 182 kts 230°
2026-05-09 11:53 46.53076 -71.59918 12804 ft 183 kts 230°
2026-05-09 11:54 46.52166 -71.61208 13136 ft 183 kts 231°
2026-05-09 11:54 46.51267 -71.62521 13447 ft 183 kts 231°
2026-05-09 11:54 46.50366 -71.63832 13756 ft 184 kts 231°
2026-05-09 11:54 46.49458 -71.65149 14027 ft 184 kts 231°
2026-05-09 11:55 46.48550 -71.66460 14306 ft 184 kts 231°
2026-05-09 11:56 46.43987 -71.73032 15593 ft 186 kts 232°
2026-05-09 11:56 46.43068 -71.74353 15835 ft 186 kts 232°
2026-05-09 11:56 46.42144 -71.75676 16087 ft 187 kts 232°
2026-05-09 11:57 46.41219 -71.77000 16330 ft 187 kts 232°
2026-05-09 11:57 46.40292 -71.78326 16553 ft 188 kts 232°
2026-05-09 11:57 46.39357 -71.79649 16776 ft 188 kts 232°
2026-05-09 11:57 46.38416 -71.80972 17009 ft 188 kts 232°
2026-05-09 11:58 46.37474 -71.82291 17240 ft 189 kts 232°
2026-05-09 11:58 46.36525 -71.83605 17465 ft 189 kts 232°
2026-05-09 11:58 46.35571 -71.84924 17665 ft 190 kts 232°
2026-05-09 11:58 46.34616 -71.86241 17873 ft 190 kts 232°
2026-05-09 11:59 46.33660 -71.87560 18082 ft 190 kts 232°
2026-05-09 11:59 46.32703 -71.88881 18272 ft 190 kts 232°
2026-05-09 11:59 46.31757 -71.90184 18426 ft 191 kts 232°
2026-05-09 11:59 46.30796 -71.91509 18581 ft 191 kts 232°
2026-05-09 12:00 46.29830 -71.92839 18730 ft 192 kts 232°
2026-05-09 12:00 46.28862 -71.94171 18883 ft 192 kts 232°
2026-05-09 12:00 46.27892 -71.95506 19034 ft 193 kts 232°
2026-05-09 12:00 46.26919 -71.96847 19182 ft 193 kts 232°
2026-05-09 12:01 46.25942 -71.98182 19333 ft 194 kts 232°
2026-05-09 12:01 46.24961 -71.99524 19478 ft 194 kts 232°
2026-05-09 12:01 46.23980 -72.00872 19617 ft 195 kts 232°
2026-05-09 12:01 46.22990 -72.02218 19768 ft 195 kts 231°
2026-05-09 12:02 46.22002 -72.03569 19869 ft 197 kts 232°
2026-05-09 12:02 46.21004 -72.04960 19907 ft 202 kts 232°
2026-05-09 12:02 46.19985 -72.06384 19932 ft 206 kts 232°
2026-05-09 12:02 46.18946 -72.07848 19946 ft 211 kts 232°
2026-05-09 12:03 46.17887 -72.09339 19951 ft 215 kts 231°
2026-05-09 12:03 46.16795 -72.10852 19952 ft 219 kts 231°
2026-05-09 12:03 46.15687 -72.12375 19947 ft 222 kts 231°
2026-05-09 12:03 46.14574 -72.13896 19946 ft 224 kts 231°
2026-05-09 12:04 46.13439 -72.15446 19949 ft 226 kts 231°
2026-05-09 12:04 46.12294 -72.17013 19949 ft 227 kts 231°
2026-05-09 12:04 46.11143 -72.18583 19952 ft 228 kts 230°
2026-05-09 12:04 46.09987 -72.20159 19958 ft 229 kts 231°
2026-05-09 12:05 46.08788 -72.21796 19523 ft 247 kts 230°
2026-05-09 12:05 46.07530 -72.23510 19381 ft 250 kts 230°
2026-05-09 12:05 46.06267 -72.25230 19312 ft 250 kts 230°
2026-05-09 12:05 46.05008 -72.26942 19279 ft 248 kts 230°
2026-05-09 12:06 46.03756 -72.28641 19266 ft 246 kts 230°
2026-05-09 12:06 46.02519 -72.30320 19314 ft 242 kts 230°
2026-05-09 12:06 46.01309 -72.31956 19508 ft 233 kts 230°
2026-05-09 12:06 46.00148 -72.33515 19750 ft 224 kts 230°
2026-05-09 12:07 45.99009 -72.35027 19854 ft 222 kts 230°
2026-05-09 12:07 45.97874 -72.36537 19903 ft 223 kts 230°
2026-05-09 12:07 45.96732 -72.38052 19928 ft 224 kts 230°
2026-05-09 12:07 45.95588 -72.39581 19940 ft 225 kts 230°
2026-05-09 12:08 45.94527 -72.41227 19681 ft 228 kts 243°
2026-05-09 12:08 45.93764 -72.43326 19162 ft 245 kts 248°
2026-05-09 12:08 45.93029 -72.45610 18461 ft 259 kts 249°
2026-05-09 12:08 45.92256 -72.47917 18033 ft 260 kts 247°
2026-05-09 12:09 45.91409 -72.50231 17672 ft 257 kts 245°
2026-05-09 12:09 45.90566 -72.52452 17258 ft 257 kts 245°
2026-05-09 12:09 45.89710 -72.54740 16858 ft 257 kts 245°
2026-05-09 12:10 45.87191 -72.61490 15716 ft 256 kts 245°
2026-05-09 12:10 45.86351 -72.63741 15361 ft 256 kts 245°
2026-05-09 12:10 45.85511 -72.65989 14998 ft 256 kts 245°
2026-05-09 12:11 45.84671 -72.68234 14651 ft 256 kts 245°
2026-05-09 12:11 45.83829 -72.70485 14293 ft 256 kts 245°
2026-05-09 12:11 45.82986 -72.72732 13956 ft 256 kts 245°
2026-05-09 12:11 45.82144 -72.74981 13592 ft 256 kts 245°
2026-05-09 12:12 45.81301 -72.77227 13199 ft 256 kts 245°
2026-05-09 12:12 45.80457 -72.79473 12828 ft 256 kts 244°
2026-05-09 12:12 45.79612 -72.81711 12443 ft 256 kts 245°
2026-05-09 12:12 45.78769 -72.83951 12070 ft 255 kts 244°
2026-05-09 12:13 45.77927 -72.86179 11704 ft 253 kts 244°
2026-05-09 12:13 45.77089 -72.88396 11335 ft 252 kts 244°
2026-05-09 12:13 45.76259 -72.90599 10973 ft 252 kts 244°
2026-05-09 12:13 45.75426 -72.92797 10619 ft 251 kts 244°
2026-05-09 12:14 45.74595 -72.94994 10267 ft 251 kts 244°
2026-05-09 12:14 45.73759 -72.97204 9922 ft 253 kts 244°
2026-05-09 12:14 45.72917 -72.99422 9547 ft 254 kts 243°
2026-05-09 12:14 45.72075 -73.01613 9164 ft 255 kts 243°
2026-05-09 12:15 45.71329 -73.03879 8798 ft 250 kts 257°
2026-05-09 12:15 45.71183 -73.06343 8423 ft 250 kts 268°
2026-05-09 12:15 45.71108 -73.08840 8046 ft 251 kts 266°
2026-05-09 12:15 45.70970 -73.11337 7677 ft 252 kts 264°
2026-05-09 12:16 45.70695 -73.13811 7332 ft 252 kts 255°
2026-05-09 12:16 45.70157 -73.16188 6963 ft 251 kts 251°
2026-05-09 12:16 45.69573 -73.18543 6625 ft 252 kts 251°
2026-05-09 12:16 45.69006 -73.20914 6252 ft 252 kts 252°
2026-05-09 12:17 45.68484 -73.23308 5888 ft 252 kts 252°
2026-05-09 12:17 45.67980 -73.25668 5688 ft 245 kts 252°
2026-05-09 12:17 45.67489 -73.27948 5484 ft 241 kts 252°
2026-05-09 12:17 45.67000 -73.30213 5322 ft 238 kts 252°
2026-05-09 12:18 45.66520 -73.32474 5146 ft 237 kts 252°
2026-05-09 12:18 45.66047 -73.34731 4994 ft 236 kts 252°
2026-05-09 12:18 45.65578 -73.36978 4774 ft 235 kts 252°
2026-05-09 12:18 45.65108 -73.39219 4593 ft 234 kts 252°
2026-05-09 12:19 45.64632 -73.41447 4415 ft 234 kts 251°
2026-05-09 12:19 45.64154 -73.43669 4245 ft 234 kts 251°
2026-05-09 12:19 45.63667 -73.45912 4128 ft 237 kts 251°
2026-05-09 12:19 45.63174 -73.48159 4076 ft 237 kts 251°
2026-05-09 12:20 45.62685 -73.50398 4020 ft 237 kts 251°
2026-05-09 12:20 45.62040 -73.52528 3958 ft 232 kts 233°
2026-05-09 12:20 45.60959 -73.54254 3727 ft 235 kts 223°
2026-05-09 12:20 45.59813 -73.55689 3439 ft 204 kts 220°
2026-05-09 12:21 45.58783 -73.56966 3170 ft 195 kts 222°
2026-05-09 12:21 45.57783 -73.58309 2908 ft 200 kts 224°
2026-05-09 12:21 45.56816 -73.59627 2630 ft 183 kts 222°
2026-05-09 12:21 45.55921 -73.60782 2398 ft 166 kts 221°
2026-05-09 12:22 45.55073 -73.61889 2168 ft 165 kts 222°
2026-05-09 12:22 45.54241 -73.62998 1940 ft 159 kts 222°
2026-05-09 12:22 45.53463 -73.64031 1734 ft 151 kts 221°
2026-05-09 12:22 45.52699 -73.65030 1517 ft 144 kts 220°
2026-05-09 12:23 45.52008 -73.65940 1331 ft 129 kts 220°
2026-05-09 12:23 45.51356 -73.66795 1162 ft 124 kts 220°
2026-05-09 12:23 45.50752 -73.67595 967 ft 115 kts 219°
2026-05-09 12:23 45.50165 -73.68354 796 ft 115 kts 219°
2026-05-09 12:24 45.49577 -73.69121 647 ft 114 kts 219°
2026-05-09 12:24 45.48989 -73.69899 530 ft 117 kts 220°
2026-05-09 12:24 45.48379 -73.70695 368 ft 121 kts 220°
2026-05-09 12:24 45.47765 -73.71513 165 ft 119 kts 221°
2026-05-09 12:25 45.47233 -73.72208 114 ft 58 kts 224°
2026-05-09 12:25 45.46977 -73.72554 114 ft 57 kts 223°
2026-05-09 12:25 45.46793 -73.72790 111 ft 44 kts 221°
2026-05-09 12:25 45.46660 -73.73030 109 ft 29 kts 247°
2026-05-09 12:26 45.46594 -73.73320 107 ft 27 kts 253°
2026-05-09 12:26 45.46538 -73.73528 105 ft 19 kts 232°
2026-05-09 12:26 45.46430 -73.73676 105 ft 25 kts 223°
2026-05-09 12:26 45.46286 -73.73865 102 ft 31 kts 222°
2026-05-09 12:27 45.46154 -73.74039 101 ft 13 kts 226°
2026-05-09 12:27 45.46138 -73.74174 100 ft 19 kts 268°
2026-05-09 12:27 45.46129 -73.74389 100 ft 21 kts 268°
2026-05-09 12:27 45.46133 -73.74545 100 ft 9 kts 295°
2026-05-09 12:28 45.46128 -73.74617 100 ft 10 kts 212°
2026-05-09 12:28 45.46087 -73.74648 101 ft 0 kts 207°